W5IM Weather Reports


Display with metric or nautical units.
time (UTC)temp
F
wind
direction
speed
MPH
gust
MPH
rain 1hr
in
rain 24hr
in
rain mn
in
humidity
%
barometer
mb
20260509214516 92 161 4.0 7.0 0.00 0.22 0.22 41 1006.9
20260509214017 92 221 6.0 9.0 0.00 0.22 0.22 39 1007.0
20260509213517 92 198 3.0 8.0 0.00 0.22 0.22 42 1006.9
20260509213018 92 203 6.0 9.0 0.00 0.22 0.22 41 1007.0
20260509212516 92 181 4.0 9.0 0.00 0.22 0.22 42 1007.0
20260509212017 91 202 5.0 9.0 0.00 0.22 0.22 43 1007.0
20260509211516 91 194 3.0 9.0 0.00 0.22 0.22 43 1007.0
20260509211017 91 193 3.0 8.0 0.00 0.22 0.22 43 1007.0
20260509210517 91 224 6.0 10.0 0.00 0.22 0.22 41 1007.1
20260509210016 91 198 6.0 9.0 0.00 0.22 0.22 40 1007.1
20260509205517 91 202 4.0 8.0 0.00 0.22 0.22 44 1007.1
20260509205017 91 189 5.0 8.0 0.00 0.22 0.22 44 1007.2
20260509204018 91 257 4.0 10.0 0.00 0.22 0.22 42 1007.3
20260509203516 91 194 5.0 9.0 0.00 0.22 0.22 43 1007.4
20260509203017 91 215 3.0 9.0 0.00 0.22 0.22 43 1007.4
20260509202516 90 244 2.0 8.0 0.00 0.22 0.22 44 1007.5
20260509202017 90 195 6.0 10.0 0.00 0.22 0.22 43 1007.6
20260509201517 91 162 6.0 9.0 0.00 0.22 0.22 44 1007.6
20260509200517 90 177 6.0 9.0 0.00 0.22 0.22 46 1007.6
20260509200017 90 188 7.0 12.0 0.00 0.22 0.22 45 1007.7
20260509195517 90 233 6.0 10.0 0.00 0.22 0.22 45 1007.7
20260509195018 90 221 6.0 9.0 0.00 0.22 0.22 46 1007.8
20260509194517 90 218 4.0 9.0 0.00 0.22 0.22 46 1007.9
20260509194017 90 239 4.0 10.0 0.00 0.22 0.22 45 1007.8
20260509193016 90 203 5.0 9.0 0.00 0.22 0.22 45 1007.9
20260509192516 90 169 6.0 9.0 0.00 0.22 0.22 45 1008.0
20260509192018 89 335 3.0 7.0 0.00 0.22 0.22 43 1008.0
20260509191516 89 221 3.0 9.0 0.00 0.22 0.22 46 1008.0
20260509191018 89 279 6.0 10.0 0.00 0.22 0.22 46 1008.2
20260509190517 89 230 6.0 10.0 0.00 0.22 0.22 48 1008.2
20260509190016 89 354 3.0 8.0 0.00 0.22 0.22 48 1008.3
20260509184518 88 239 5.0 9.0 0.00 0.22 0.22 50 1008.6
20260509184018 88 220 2.0 8.0 0.00 0.22 0.22 52 1008.7
20260509183518 87 242 2.0 9.0 0.00 0.22 0.22 54 1008.7
20260509183018 87 224 7.0 9.0 0.00 0.22 0.22 52 1008.8
20260509182519 87 248 4.0 9.0 0.00 0.22 0.22 53 1008.9
20260509182018 87 251 8.0 10.0 0.00 0.22 0.22 51 1008.9
20260509181518 87 286 4.0 8.0 0.00 0.22 0.22 55 1008.9
20260509180516 86 287 2.0 6.0 0.00 0.22 0.22 56 1009.1
20260509180016 86 241 5.0 9.0 0.00 0.22 0.22 56 1009.1
20260509175516 86 304 6.0 12.0 0.00 0.22 0.22 58 1009.1
20260509175017 85 250 5.0 9.0 0.00 0.22 0.22 58 1009.1
20260509174517 85 250 9.0 13.0 0.00 0.22 0.22 58 1009.1
20260509174016 85 240 6.0 10.0 0.00 0.22 0.22 60 1008.9
20260509173517 84 241 7.0 12.0 0.00 0.22 0.22 61 1008.9
20260509173016 84 246 6.0 12.0 0.00 0.22 0.22 61 1008.9
20260509172517 84 231 7.0 13.0 0.00 0.22 0.22 63 1009.1
20260509172017 83 250 8.0 13.0 0.00 0.22 0.22 63 1009.1
20260509171516 83 246 7.0 13.0 0.00 0.22 0.22 62 1009.0
20260509171018 83 224 8.0 13.0 0.00 0.22 0.22 64 1009.0
20260509170519 83 250 8.0 12.0 0.00 0.22 0.22 64 1009.0
20260509170017 82 229 6.0 10.0 0.00 0.22 0.22 66 1009.0
20260509165516 82 256 7.0 12.0 0.00 0.22 0.22 66 1009.1
20260509165017 82 236 6.0 8.0 0.00 0.22 0.22 68 1009.0
20260509164517 82 255 7.0 12.0 0.00 0.22 0.22 68 1009.2
20260509164016 82 254 7.0 10.0 0.00 0.22 0.22 68 1009.2
20260509163517 82 250 5.0 10.0 0.00 0.22 0.22 68 1009.3
20260509163017 82 236 5.0 9.0 0.00 0.22 0.22 68 1009.3
20260509162017 82 204 5.0 9.0 0.00 0.22 0.22 66 1009.4
20260509161017 81 219 5.0 8.0 0.00 0.22 0.22 65 1009.4
20260509160517 81 268 2.0 8.0 0.00 0.22 0.22 69 1009.4
20260509155017 81 256 2.0 5.0 0.00 0.22 0.22 70 1009.6
20260509154516 81 3 1.0 3.0 0.00 0.22 0.22 70 1009.8
20260509154017 81 334 3.0 6.0 0.00 0.22 0.22 72 1009.9
20260509153516 80 319 5.0 8.0 0.00 0.22 0.22 71 1009.9
20260509153019 80 338 5.0 9.0 0.00 0.22 0.22 72 1009.8
20260509152516 80 342 6.0 9.0 0.00 0.22 0.22 72 1009.9
20260509152016 80 352 5.0 8.0 0.00 0.22 0.22 72 1009.9
20260509151516 80 338 3.0 7.0 0.00 0.22 0.22 73 1009.8
20260509151017 80 4 5.0 7.0 0.00 0.22 0.22 73 1009.8
20260509150517 80 59 3.0 5.0 0.00 0.22 0.22 73 1009.9
20260509145518 80 349 1.0 2.0 0.00 0.22 0.22 73 1009.9
20260509144518 79 340 2.0 3.0 0.00 0.22 0.22 74 1009.9
20260509144018 79 197 1.0 3.0 0.00 0.22 0.22 75 1010.0
20260509143018 78 63 3.0 5.0 0.00 0.22 0.22 78 1009.6
20260509142518 78 51 2.0 5.0 0.00 0.22 0.22 78 1009.6
20260509142019 77 46 2.0 5.0 0.00 0.22 0.22 78 1009.6
20260509141517 77 10 2.0 3.0 0.00 0.22 0.22 80 1009.6
20260509141018 77 51 2.0 3.0 0.00 0.22 0.22 80 1009.7
20260509140518 77 105 1.0 3.0 0.00 0.22 0.22 81 1009.7
20260509140017 76 131 1.0 3.0 0.00 0.22 0.22 84 1009.8
20260509135518 75 158 1.0 3.0 0.00 0.22 0.22 85 1009.7
20260509135019 75 170 1.0 2.0 0.00 0.22 0.22 86 1009.6
20260509134518 74 176 0.0 2.0 0.00 0.22 0.22 86 1009.7
20260509133516 74 189 2.0 5.0 0.00 0.22 0.22 86 1009.9
20260509133017 74 192 3.0 6.0 0.00 0.22 0.22 86 1010.0
20260509132516 74 205 2.0 3.0 0.00 0.22 0.22 86 1010.0
20260509132017 74 201 2.0 3.0 0.00 0.22 0.22 87 1010.0
20260509131516 74 206 2.0 3.0 0.00 0.22 0.22 88 1010.0
20260509131016 74 187 3.0 5.0 0.00 0.22 0.22 88 1010.1
20260509130517 74 197 3.0 6.0 0.00 0.22 0.22 89 1010.0
20260509130016 75 215 5.0 7.0 0.00 0.22 0.22 89 1009.9
20260509125518 75 221 5.0 8.0 0.00 0.22 0.22 90 1009.8
20260509125017 75 236 1.0 6.0 0.00 0.22 0.22 91 1009.7
20260509124516 75 149 2.0 6.0 0.00 0.22 0.22 91 1009.7
20260509124017 75 172 3.0 8.0 0.00 0.22 0.22 91 1009.5
20260509123517 75 144 7.0 12.0 0.00 0.22 0.22 92 1009.3
20260509123017 75 143 6.0 12.0 0.00 0.22 0.22 92 1009.2
20260509122516 76 160 2.0 6.0 0.00 0.22 0.22 92 1009.2
20260509122017 76 180 2.0 8.0 0.00 0.22 0.22 92 1009.2
20260509121516 76 178 7.0 10.0 0.00 0.22 0.22 92 1008.9
20260509121017 75 157 8.0 12.0 0.01 0.22 0.22 92 1008.6
20260509120517 75 147 7.0 13.0 0.01 0.22 0.22 91 1008.4
20260509120016 75 142 8.0 13.0 0.02 0.22 0.22 91 1008.1
20260509115516 76 120 9.0 15.0 0.03 0.22 0.22 91 1007.8
20260509115016 75 148 9.0 15.0 0.04 0.22 0.22 89 1008.0
20260509114516 75 152 9.0 15.0 0.05 0.22 0.22 88 1007.7
20260509114016 75 147 8.0 14.0 0.06 0.22 0.22 87 1007.3
20260509113516 75 147 10.0 16.0 0.06 0.22 0.22 90 1006.8
20260509113017 75 130 14.0 22.0 0.08 0.22 0.22 93 1006.4
20260509112516 75 134 17.0 25.0 0.09 0.22 0.22 94 1005.9
20260509112016 75 135 18.0 28.0 0.11 0.22 0.22 93 1006.0
20260509111016 75 148 19.0 29.0 0.13 0.21 0.21 94 1006.4
20260509110517 75 152 20.0 29.0 0.14 0.21 0.21 94 1006.1
20260509110016 75 137 18.0 25.0 0.14 0.20 0.20 94 1007.1
20260509105516 75 158 16.0 28.0 0.15 0.19 0.19 95 1007.7
20260509105016 75 146 19.0 28.0 0.15 0.18 0.18 95 1007.7
20260509104016 75 138 18.0 24.0 0.14 0.16 0.16 95 1007.6
20260509103516 75 140 16.0 22.0 0.15 0.16 0.16 95 1008.4
20260509103016 76 129 10.0 14.0 0.13 0.14 0.14 94 1008.9
20260509102516 76 130 9.0 12.0 0.13 0.13 0.13 94 1009.4
20260509102016 76 154 7.0 9.0 0.11 0.11 0.11 94 1009.8
20260509101516 76 164 6.0 10.0 0.10 0.10 0.10 94 1009.7
20260509100517 76 147 5.0 8.0 0.07 0.07 0.07 93 1009.5
20260509100016 76 150 6.0 8.0 0.06 0.06 0.06 93 1009.5
20260509095516 76 185 3.0 5.0 0.04 0.04 0.04 93 1009.6
20260509095016 76 228 3.0 6.0 0.03 0.03 0.03 93 1009.5
20260509094517 76 212 4.0 6.0 0.02 0.02 0.02 93 1009.1
20260509094021 76 204 3.0 6.0 0.02 0.02 0.02 93 1008.7
20260509093516 76 137 5.0 7.0 0.01 0.01 0.01 93 1008.5
20260509093016 76 130 5.0 8.0 0.01 0.01 0.01 93 1008.5
20260509092016 76 141 6.0 8.0 0.00 0.00 0.00 93 1008.5
20260509091016 76 120 6.0 8.0 0.00 0.00 0.00 93 1008.7
20260509090516 76 134 7.0 12.0 0.00 0.00 0.00 93 1008.5
20260509090017 76 128 7.0 10.0 0.00 0.00 0.00 92 1008.6
20260509085516 76 116 5.0 7.0 0.00 0.00 0.00 92 1008.6
20260509085016 76 100 4.0 7.0 0.00 0.00 0.00 92 1008.7
20260509084516 76 71 4.0 6.0 0.00 0.00 0.00 92 1008.7
20260509084016 76 56 4.0 6.0 0.00 0.00 0.00 92 1008.6
20260509083517 76 43 5.0 6.0 0.00 0.00 0.00 91 1008.6
20260509083016 76 16 5.0 6.0 0.00 0.00 0.00 91 1008.6
20260509082516 76 12 3.0 6.0 0.00 0.00 0.00 91 1008.4
20260509082017 76 44 5.0 6.0 0.00 0.00 0.00 91 1008.3
20260509081516 76 47 4.0 6.0 0.00 0.00 0.00 91 1008.5
20260509081016 77 10 5.0 8.0 0.00 0.00 0.00 91 1008.3
20260509080516 76 67 6.0 8.0 0.00 0.00 0.00 92 1008.2
20260509080016 76 57 3.0 7.0 0.00 0.00 0.00 92 1008.3
20260509075516 76 85 5.0 8.0 0.00 0.00 0.00 92 1008.2
20260509075016 76 95 6.0 8.0 0.00 0.00 0.00 92 1008.2
20260509074516 76 68 5.0 7.0 0.00 0.00 0.00 92 1008.3
20260509074016 76 46 6.0 8.0 0.00 0.00 0.00 92 1008.2
20260509073516 76 45 7.0 10.0 0.00 0.00 0.00 92 1008.2
20260509073016 76 13 7.0 10.0 0.00 0.00 0.00 91 1008.2
20260509072516 76 9 6.0 8.0 0.00 0.00 0.00 91 1008.1
20260509071515 76 120 6.0 10.0 0.00 0.00 0.00 91 1007.7
20260509071016 76 118 7.0 10.0 0.00 0.00 0.00 91 1007.8
20260509070516 76 130 7.0 8.0 0.00 0.00 0.00 91 1008.0
20260509070015 76 114 6.0 9.0 0.00 0.00 0.00 91 1007.8
20260509065516 76 112 7.0 9.0 0.00 0.00 0.00 91 1007.9
20260509065016 76 130 7.0 12.0 0.00 0.00 0.00 91 1007.9
20260509064017 76 121 7.0 10.0 0.00 0.00 0.00 91 1008.2
20260509063516 76 127 7.0 9.0 0.00 0.00 0.00 91 1008.4
20260509063015 76 129 6.0 8.0 0.00 0.00 0.00 91 1008.6
20260509062516 76 117 3.0 7.0 0.00 0.00 0.00 90 1008.7
20260509062016 76 88 3.0 7.0 0.00 0.00 0.00 90 1008.8
20260509061516 76 78 3.0 5.0 0.00 0.00 0.00 90 1008.8
20260509061020 76 91 3.0 5.0 0.00 0.00 0.00 90 1008.9
20260509060516 76 101 4.0 6.0 0.00 0.00 0.00 90 1009.1
20260509060016 76 75 5.0 6.0 0.00 0.00 0.00 90 1009.3
20260509055516 76 90 5.0 7.0 0.00 0.00 0.00 90 1009.4
20260509055016 76 79 5.0 7.0 0.00 0.00 0.00 90 1009.3
20260509054516 76 89 5.0 8.0 0.00 0.00 0.00 90 1009.4
20260509054016 76 96 7.0 9.0 0.00 0.00 0.00 90 1009.3
20260509053517 76 87 8.0 10.0 0.00 0.00 0.00 89 1009.4
20260509053016 76 96 6.0 10.0 0.00 0.00 0.00 89 1009.2
20260509052516 76 71 7.0 10.0 0.00 0.00 0.00 89 1009.2
20260509052017 76 92 6.0 10.0 0.00 0.00 0.00 88 1009.2
20260509051515 76 89 9.0 13.0 0.00 0.00 0.00 88 1009.2
20260509051016 76 101 6.0 12.0 0.00 0.00 0.00 88 1009.3
20260509050516 76 83 8.0 12.0 0.00 0.00 0.00 88 1009.2
20260509050016 76 96 7.0 10.0 0.00 0.00 0.00 88 1009.1
20260509045516 76 97 6.0 9.0 0.00 0.00 0.00 88 1009.1
20260509045017 76 98 6.0 9.0 0.00 0.00 0.00 88 1009.0
20260509044516 77 82 7.0 9.0 0.00 0.00 0.00 87 1009.0
20260509043516 77 87 7.0 13.0 0.00 0.00 0.00 87 1008.9
20260509043017 77 80 9.0 12.0 0.00 0.00 0.00 87 1008.9
20260509042516 77 85 9.0 12.0 0.00 0.00 0.00 86 1008.8
20260509042016 77 74 10.0 14.0 0.00 0.00 0.00 86 1008.7
20260509041516 77 75 9.0 14.0 0.00 0.00 0.00 86 1008.7
20260509041016 77 62 7.0 14.0 0.00 0.00 0.00 86 1008.7
20260509040515 77 73 9.0 12.0 0.00 0.00 0.00 86 1008.7
20260509040016 77 66 10.0 14.0 0.00 0.00 0.00 86 1008.8
20260509035516 77 71 8.0 14.0 0.00 0.00 0.00 86 1008.8
20260509035016 77 69 8.0 12.0 0.00 0.00 0.00 86 1008.7
20260509034016 77 96 8.0 12.0 0.00 0.00 0.00 86 1008.3
20260509033516 77 75 9.0 13.0 0.00 0.00 0.00 85 1008.3
20260509032515 78 80 6.0 9.0 0.00 0.00 0.00 85 1008.3
20260509031515 78 75 9.0 12.0 0.00 0.00 0.00 84 1008.0
20260509031016 78 80 6.0 12.0 0.00 0.00 0.00 85 1008.0
20260509030516 78 81 6.0 10.0 0.00 0.00 0.00 84 1007.9
20260509025516 78 85 8.0 12.0 0.00 0.00 0.00 84 1007.7
20260509025016 78 90 7.0 12.0 0.00 0.00 0.00 84 1007.7
20260509024016 79 71 7.0 12.0 0.00 0.00 0.00 83 1007.4
20260509023515 79 90 6.0 12.0 0.00 0.00 0.00 83 1007.5
20260509023016 79 80 9.0 13.0 0.00 0.00 0.00 83 1007.4
20260509022016 79 75 8.0 12.0 0.00 0.00 0.00 82 1007.0
20260509021516 79 81 9.0 13.0 0.00 0.00 0.00 82 1007.0
20260509021015 79 79 9.0 14.0 0.00 0.00 0.00 82 1006.9
20260509020516 80 67 8.0 13.0 0.00 0.00 0.00 81 1006.8
20260509020015 80 80 8.0 12.0 0.00 0.00 0.00 81 1006.7
20260509015516 80 66 8.0 12.0 0.00 0.00 0.00 81 1006.6
20260509015015 80 69 8.0 12.0 0.00 0.00 0.00 81 1006.7
20260509014516 80 76 7.0 10.0 0.00 0.00 0.00 81 1006.6
20260509014016 80 92 8.0 13.0 0.00 0.00 0.00 81 1006.4
20260509013516 80 90 7.0 12.0 0.00 0.00 0.00 80 1006.4
20260509013016 80 83 7.0 9.0 0.00 0.00 0.00 80 1006.4
20260509012516 81 94 6.0 9.0 0.00 0.00 0.00 79 1006.4
20260509012015 81 86 8.0 10.0 0.00 0.00 0.00 79 1006.3
20260509011515 82 110 6.0 8.0 0.00 0.00 0.00 79 1006.3
20260509011016 82 100 6.0 9.0 0.00 0.00 0.00 78 1006.1
20260509010516 82 103 5.0 9.0 0.00 0.00 0.00 77 1006.2
20260509010015 82 111 6.0 9.0 0.00 0.00 0.00 76 1006.0
20260509005516 82 106 6.0 10.0 0.00 0.00 0.00 76 1006.0
20260509005016 83 107 7.0 10.0 0.00 0.00 0.00 75 1006.0
20260509004015 83 114 6.0 12.0 0.00 0.00 0.00 75 1005.9
20260509003515 83 113 4.0 8.0 0.00 0.00 0.00 76 1005.9
20260509003016 83 123 8.0 12.0 0.00 0.00 0.00 75 1006.0
20260509002515 83 132 5.0 9.0 0.00 0.00 0.00 76 1005.9
20260509002016 83 94 6.0 9.0 0.00 0.00 0.00 75 1005.8
20260509001015 83 118 7.0 14.0 0.00 0.00 0.00 76 1005.8
20260509000515 83 114 9.0 12.0 0.00 0.00 0.00 76 1005.6
20260509000015 83 101 7.0 12.0 0.00 0.00 0.00 76 1005.7
20260508235515 83 100 6.0 9.0 0.00 0.00 0.00 76 1005.9
20260508235016 83 96 6.0 9.0 0.00 0.00 0.00 76 1005.9
20260508234515 83 111 7.0 13.0 0.00 0.00 0.00 76 1005.8
20260508234015 83 103 9.0 14.0 0.00 0.00 0.00 76 1005.8
20260508233515 83 93 7.0 12.0 0.00 0.00 0.00 76 1005.8
20260508233015 83 88 9.0 13.0 0.00 0.00 0.00 75 1005.9
20260508232515 84 105 8.0 13.0 0.00 0.00 0.00 74 1005.7
20260508232015 84 88 9.0 14.0 0.00 0.00 0.00 73 1005.8
20260508231515 84 80 9.0 13.0 0.00 0.00 0.00 72 1006.1
20260508231016 85 111 9.0 13.0 0.00 0.00 0.00 71 1006.0
20260508230516 84 106 8.0 12.0 0.00 0.00 0.00 73 1005.9
20260508230015 84 107 7.0 12.0 0.00 0.00 0.00 73 1005.8
20260508225516 83 95 7.0 10.0 0.00 0.00 0.00 73 1005.8
20260508225015 83 92 7.0 10.0 0.00 0.00 0.00 72 1006.1
20260508224515 83 89 7.0 12.0 0.00 0.00 0.00 73 1005.8
20260508224015 83 92 5.0 9.0 0.00 0.00 0.00 72 1006.1
20260508223517 83 94 7.0 10.0 0.00 0.00 0.00 72 1006.0
20260508223016 83 106 7.0 10.0 0.00 0.00 0.00 72 1006.1
20260508222516 83 96 8.0 9.0 0.00 0.00 0.00 71 1006.3
20260508222016 84 92 8.0 10.0 0.00 0.00 0.00 71 1006.3
20260508221516 84 98 9.0 12.0 0.00 0.00 0.00 71 1006.3
20260508221015 84 120 8.0 12.0 0.00 0.00 0.00 70 1006.2
20260508215515 84 92 6.0 12.0 0.00 0.00 0.00 71 1006.0
20260508215016 83 109 9.0 16.0 0.00 0.00 0.00 70 1005.5